Theta_e
310 310 310 310 310 311 311 311 312 311 311 314 317 317 318 318 317 317 317 316 316 317 319 320 320 320 319 318 319 319 319 319 318 317 318 317 316 316 316 316 314 314 315 315 315 315 313 313 313 311 312 312 312 312 312 313 314 316 320 320 318 319 319 322 323 322 321 322 320 318 318 318 317 317 316 316 316 315 316 316 316 316 316 317 317 317 317 316
308 309 310 310 310 311 311 311 312 312 311 312 313 314 315 316 315 315 315 316 316 316 317 318 319 320 318 317 317 318 318 318 317 316 317 316 315 314 314 313 312 312 311 311 313 315 313 313 312 311 312 312 311 311 312 313 314 317 322 320 319 320 319 319 320 318 319 320 318 317 318 316 316 316 316 316 315 315 315 315 316 316 316 317 317 317 317 317
309 307 308 308 310 310 311 311 312 312 312 312 311 312 313 313 313 313 314 316 316 316 316 316 317 319 318 317 316 318 319 317 316 316 316 314 314 313 312 311 310 309 309 309 311 314 314 312 312 311 311 311 310 311 311 312 314 316 318 318 320 321 318 317 317 317 318 318 315 316 317 316 316 317 316 316 315 315 315 316 315 315 316 317 318 317 317 316
313 311 309 308 307 308 309 310 311 312 312 313 313 313 313 313 312 312 312 314 316 316 317 317 317 318 317 316 316 317 318 318 316 315 315 314 314 312 310 310 309 308 309 310 312 314 314 312 312 311 310 310 310 311 311 312 315 315 315 317 320 318 316 317 317 317 318 318 316 316 316 316 317 317 317 316 316 316 316 316 316 316 317 318 318 318 316 316
315 315 314 312 311 310 309 310 310 311 312 313 313 313 314 313 313 312 311 312 314 316 316 316 316 317 316 315 315 316 318 319 318 315 315 316 316 312 310 311 310 309 309 310 312 312 312 312 311 310 309 310 310 311 312 312 313 314 313 314 316 315 315 316 315 316 317 318 317 316 316 316 316 316 316 316 316 317 317 317 318 318 318 318 318 317 316 316
315 316 317 317 316 315 314 313 312 312 312 313 313 313 314 313 313 312 310 310 311 313 315 316 316 316 315 314 314 316 317 319 319 316 316 317 317 314 312 313 312 310 309 308 309 309 311 311 311 309 308 309 310 310 312 312 313 314 314 312 312 313 313 314 315 315 316 316 314 314 316 315 314 315 315 316 315 317 318 318 318 318 318 317 317 316 316 316
312 313 316 317 318 318 318 317 316 315 314 313 313 313 313 313 313 312 311 309 309 309 311 313 314 315 314 313 313 316 316 318 318 316 316 316 317 315 313 315 313 311 310 309 308 308 310 312 311 309 308 309 309 309 310 311 312 313 314 313 313 313 312 314 315 314 315 314 313 314 315 313 313 314 314 314 315 317 319 318 318 318 318 317 316 315 315 315
311 311 312 314 315 316 317 317 317 316 316 315 314 313 312 312 312 312 311 310 309 308 308 309 311 313 313 312 312 315 316 317 317 315 316 317 318 315 314 315 313 311 310 310 309 308 310 311 311 310 309 309 308 308 309 309 310 313 314 312 312 313 312 314 314 314 314 313 314 314 312 312 312 313 313 313 314 317 317 317 318 319 318 316 316 315 315 314
312 310 310 312 314 314 315 316 316 316 316 316 316 315 313 312 312 312 311 310 309 308 308 309 311 312 312 311 312 314 315 317 316 313 316 318 318 316 315 315 313 312 310 309 309 308 309 310 310 310 310 309 308 308 308 308 310 311 312 311 311 312 312 313 313 312 313 312 313 312 311 311 312 312 312 312 314 317 316 316 317 318 317 315 315 314 314 314
311 310 310 313 315 315 315 315 315 315 315 316 316 316 315 313 312 311 310 310 309 309 310 311 312 312 311 310 312 315 316 316 315 314 316 317 317 315 314 314 315 314 312 310 309 310 309 309 310 310 310 310 309 308 308 308 309 309 309 310 310 310 311 312 311 312 312 312 312 311 311 311 311 312 313 313 315 315 315 314 315 315 314 314 313 313 313 312
310 309 311 314 316 316 314 312 311 310 311 312 314 316 316 315 313 311 310 310 310 310 312 313 313 311 310 309 311 314 315 315 315 313 315 316 317 315 313 314 315 314 313 311 310 310 309 310 311 310 311 310 309 308 308 308 309 308 309 309 309 309 310 310 309 311 311 311 311 311 310 310 311 312 312 313 313 313 313 314 313 313 313 312 312 312 312 312
309 311 313 315 316 316 315 312 309 307 307 308 310 313 315 316 315 312 310 310 311 312 314 314 312 311 309 307 309 313 314 313 313 313 314 315 317 316 313 314 314 312 311 311 310 310 309 310 310 310 311 311 309 308 308 309 308 308 308 309 311 309 309 309 309 310 309 310 311 310 311 311 311 312 312 312 313 313 313 313 312 311 312 311 311 311 311 312
313 314 315 316 316 316 315 313 310 308 307 306 307 310 313 315 316 314 313 313 313 315 315 313 311 309 307 308 312 314 313 311 310 312 312 314 315 313 312 313 312 311 310 309 309 309 309 309 309 310 310 310 310 309 308 309 308 309 309 309 310 310 310 309 308 309 308 309 310 310 311 311 311 311 312 313 313 313 312 311 310 311 311 310 310 311 311 312
314 315 315 315 315 315 314 311 308 306 304 304 305 307 311 313 315 316 315 316 316 316 315 311 309 308 307 310 313 313 312 310 310 311 312 313 311 310 313 314 311 309 308 308 308 308 309 309 309 309 309 309 310 309 310 310 309 310 309 310 310 310 313 312 308 309 309 309 309 311 311 310 310 311 311 312 312 311 310 309 310 310 309 309 310 310 311 312
313 313 313 312 311 311 308 305 303 302 302 303 304 306 309 311 314 315 316 316 315 314 312 309 308 307 307 310 313 312 311 311 311 311 311 311 310 311 314 313 310 309 308 307 307 307 309 310 309 307 307 308 308 308 312 315 316 313 310 312 314 310 311 312 309 308 310 309 308 310 311 309 310 310 311 311 311 309 308 308 309 309 309 310 310 311 311 311
310 309 308 307 306 305 303 301 301 302 302 302 303 305 307 310 312 313 314 313 311 310 309 308 308 308 309 312 313 313 312 312 312 311 311 310 310 313 313 311 309 309 307 307 306 306 309 310 308 307 306 308 310 310 310 313 318 318 311 312 316 313 310 311 309 307 308 308 308 309 311 310 310 310 310 310 309 308 307 307 308 309 310 310 310 310 310 311
304 303 303 302 302 301 301 301 301 301 302 302 302 304 305 308 308 308 309 308 307 306 306 309 310 310 312 313 313 312 312 313 312 312 312 311 313 314 312 310 309 308 307 307 306 306 307 308 308 308 308 310 313 313 310 309 313 315 312 311 315 314 311 311 311 308 307 309 309 309 309 309 310 310 309 310 310 308 306 307 308 309 309 309 309 309 310 311
300 300 300 300 300 301 301 301 301 301 302 302 302 303 304 305 304 304 306 306 306 305 307 308 309 312 315 312 311 311 313 313 312 313 313 314 315 315 313 310 308 308 307 307 307 307 307 307 309 311 310 309 312 311 309 309 310 313 314 312 314 315 311 310 312 310 308 309 309 309 308 308 309 309 308 309 309 308 307 307 308 308 308 308 308 309 309 310
301 300 301 301 301 301 301 301 301 301 301 301 301 302 302 303 303 304 305 305 307 310 314 312 310 314 315 311 311 312 312 313 312 312 314 316 315 314 313 310 308 308 308 309 310 308 308 308 307 310 311 310 311 310 309 309 312 317 316 313 314 314 311 310 310 311 310 309 310 309 308 307 308 308 308 308 308 307 306 307 307 307 308 308 308 309 310 310
301 301 301 301 301 301 301 301 301 301 302 301 302 302 302 304 307 309 308 307 309 313 315 314 313 314 314 311 311 312 312 311 312 312 314 316 315 314 311 309 309 308 310 314 314 310 308 310 310 310 311 310 310 310 309 311 313 315 313 313 314 312 311 310 310 311 309 308 310 310 308 308 308 308 308 308 308 307 307 306 307 307 308 308 309 310 311 311
300 300 301 301 301 301 301 301 301 301 301 301 302 302 305 308 311 313 312 310 311 312 313 313 313 313 313 313 312 312 312 311 311 311 314 316 315 315 311 310 310 310 312 313 312 310 308 311 312 310 310 310 310 312 312 313 313 312 312 313 313 311 311 310 310 311 308 308 311 311 310 309 309 309 309 309 308 308 308 307 307 308 308 309 310 311 312 313
300 301 302 302 302 301 301 301 301 301 301 301 301 302 307 311 311 312 311 310 311 311 312 312 313 313 313 313 312 312 312 312 312 311 313 314 315 315 312 311 313 313 313 311 310 310 309 311 311 309 311 312 313 314 314 313 313 313 313 312 312 312 312 311 312 312 310 309 312 312 311 310 310 310 309 310 310 309 309 309 308 309 309 310 312 312 312 313
300 301 301 301 301 301 301 301 301 301 301 301 301 301 306 310 310 309 309 309 311 309 308 309 310 311 312 312 313 312 311 311 312 311 312 313 313 314 311 311 315 314 313 313 313 312 312 314 312 309 312 314 313 314 314 313 313 314 313 313 313 312 312 312 313 314 311 310 311 312 311 310 310 310 310 311 309 309 310 309 310 310 310 311 312 312 313 314
301 300 301 301 300 300 301 301 300 301 301 301 301 301 307 310 309 308 307 307 309 307 307 308 309 309 310 311 312 312 311 310 310 310 311 312 312 312 312 311 313 313 313 315 315 313 314 315 311 311 314 313 313 313 314 313 313 314 313 313 312 311 312 312 312 313 312 312 313 312 311 314 315 314 316 314 309 309 310 309 310 310 310 311 312 313 313 315
300 300 301 300 300 300 300 300 300 301 301 301 301 300 306 310 308 307 307 307 309 310 309 311 312 311 310 311 311 312 311 310 310 310 311 312 311 311 312 310 311 314 315 315 315 314 314 311 309 313 315 313 313 314 317 316 314 315 315 314 313 312 312 311 312 311 311 315 315 312 312 320 323 318 317 315 311 311 310 310 310 309 310 312 313 314 314 315
300 300 301 300 300 300 300 300 302 303 302 303 302 301 303 309 308 306 307 309 312 314 312 313 314 313 312 312 312 311 311 311 310 310 311 311 311 311 312 311 310 315 318 315 314 314 314 311 310 313 313 313 315 314 317 316 313 314 315 315 314 312 312 312 312 311 313 316 313 312 313 316 316 312 313 312 311 313 312 312 311 307 310 314 315 315 315 315
300 300 300 300 300 300 299 302 305 305 303 305 305 303 303 305 306 306 309 311 312 313 313 313 311 312 313 313 313 311 312 314 312 310 311 311 312 311 313 315 311 312 314 312 313 314 315 314 313 313 313 314 314 313 315 315 314 316 314 316 317 313 313 315 313 313 316 316 314 314 313 312 313 313 315 314 312 315 314 314 315 311 311 315 315 315 314 313
299 299 299 300 299 299 300 303 307 306 306 307 306 304 304 304 305 307 311 312 312 313 314 312 310 311 313 312 312 311 311 313 313 313 312 311 313 311 315 317 314 314 312 311 315 315 313 317 317 315 314 314 315 315 316 314 314 316 312 313 316 313 314 316 315 317 316 313 315 317 313 312 317 319 320 316 313 318 318 318 322 318 312 314 314 313 313 313
299 299 299 299 299 300 300 302 306 308 309 309 306 305 305 303 305 310 312 310 311 313 313 311 310 311 312 312 311 311 311 312 313 314 312 312 312 312 314 314 312 315 313 311 316 315 312 314 314 316 316 316 319 319 316 315 313 313 310 313 319 318 318 316 314 316 314 311 313 317 314 312 318 324 323 316 313 320 323 322 323 318 312 312 313 313 315 315
299 299 298 298 298 299 299 301 305 308 310 309 306 305 304 304 310 314 311 310 313 313 310 309 311 311 311 312 311 311 311 312 312 312 311 312 312 311 312 311 310 314 315 312 314 314 311 309 308 312 313 313 317 313 309 312 313 311 312 316 319 319 319 319 318 315 311 314 318 317 314 311 315 324 325 317 314 320 323 320 319 317 313 312 313 314 315 315
300 298 298 298 298 299 299 300 304 308 309 308 305 304 304 308 316 317 310 310 312 312 310 310 311 311 312 314 314 312 312 312 311 311 312 312 312 311 311 312 312 315 318 315 315 314 311 310 310 312 309 308 313 310 306 309 310 313 318 316 314 317 318 318 320 315 312 320 323 318 313 310 313 320 321 317 314 317 319 314 316 320 315 312 314 315 315 315
301 298 298 298 298 299 300 300 303 306 308 307 304 304 308 309 311 314 315 313 310 311 314 314 313 312 312 314 315 313 312 313 311 311 315 314 313 313 313 314 315 316 319 317 316 316 315 314 312 310 308 308 313 313 309 309 310 314 318 313 311 314 313 313 317 317 316 318 316 313 312 311 313 315 314 314 314 316 316 311 313 315 311 311 314 315 315 314
301 299 298 298 297 298 300 302 303 305 308 306 304 308 313 310 310 313 316 315 309 310 314 316 315 314 312 314 316 314 312 314 313 311 314 314 313 313 312 314 315 315 317 315 314 316 318 316 311 310 310 309 312 314 314 314 312 313 315 314 313 313 310 313 317 315 316 317 312 309 311 314 316 314 312 314 314 312 311 308 309 310 310 312 314 314 314 313
302 300 299 297 297 298 299 302 303 305 307 306 306 311 311 310 313 312 313 314 310 309 312 314 314 313 312 314 316 314 313 314 314 313 313 312 314 315 314 313 312 313 315 314 314 316 320 320 314 313 312 309 310 312 316 319 313 311 315 315 315 317 316 318 319 318 319 320 315 310 312 319 321 316 314 313 310 308 307 308 309 310 311 312 312 314 313 312
302 301 299 297 297 297 298 302 304 305 306 306 307 311 309 308 312 313 314 316 312 311 312 312 313 313 313 315 315 314 313 313 314 314 314 314 315 316 317 315 311 313 316 316 316 314 316 318 314 308 307 308 310 309 311 317 314 311 312 312 314 318 318 317 316 317 316 315 315 314 315 321 319 313 312 311 310 309 307 307 308 308 311 310 311 314 313 311
303 302 301 299 298 297 297 301 305 305 306 307 308 309 308 308 314 316 314 314 314 314 314 313 314 314 314 315 314 313 312 312 314 315 315 314 315 315 319 318 312 311 313 315 317 314 313 316 312 307 306 306 308 307 307 312 314 312 311 314 315 312 312 314 312 311 309 311 316 314 314 317 313 312 316 315 316 315 310 309 310 308 309 310 312 313 311 312
303 302 302 300 299 298 297 299 304 305 305 307 308 308 308 308 314 317 312 310 312 314 315 316 315 314 314 315 314 313 313 312 313 316 317 315 315 316 316 316 312 311 312 312 316 317 315 316 311 308 310 307 303 305 307 306 309 312 313 315 313 308 310 315 314 313 312 314 319 315 312 314 312 315 321 319 319 319 314 312 312 311 309 309 312 313 312 312
303 302 301 301 299 299 297 298 302 304 305 307 308 310 312 308 307 311 311 309 311 313 315 315 313 313 315 315 315 314 313 313 313 316 317 315 316 316 315 314 311 310 310 309 313 316 313 314 313 307 309 308 303 306 310 306 305 309 311 309 309 311 316 314 312 316 314 313 319 320 316 313 312 316 320 316 315 318 316 312 311 314 314 311 311 312 312 311
303 301 301 303 300 299 298 298 301 304 306 307 307 308 311 310 306 308 311 310 312 314 315 313 309 310 314 316 318 316 312 313 315 314 313 312 314 314 313 314 313 310 309 309 313 316 312 312 315 308 306 308 307 309 314 311 306 305 307 308 308 313 317 314 313 317 316 313 317 322 322 317 314 316 319 315 315 316 316 314 315 316 313 309 309 311 311 311
302 300 301 303 301 299 299 299 301 304 306 307 307 306 308 310 307 307 309 310 312 312 313 315 312 309 312 313 315 316 313 313 315 314 312 311 313 315 311 313 317 312 308 308 311 315 311 310 315 310 305 307 311 311 312 314 311 308 310 312 310 310 312 312 311 313 317 319 317 318 321 319 315 316 318 316 315 316 315 316 320 317 308 308 311 311 311 311
302 301 302 302 300 299 299 300 302 304 306 307 307 305 306 309 309 309 309 309 311 310 311 316 316 312 312 312 313 315 312 312 314 313 313 311 312 315 312 312 317 313 310 310 312 314 312 312 317 315 309 312 316 312 308 310 312 310 311 313 311 311 313 312 312 312 313 316 318 317 316 315 316 316 315 312 313 316 313 315 323 316 307 309 312 311 311 312
301 301 303 302 301 300 300 301 302 303 305 307 306 305 306 308 309 310 309 308 310 310 310 313 314 313 313 313 314 315 313 314 313 312 314 312 312 314 312 310 312 312 313 316 313 312 313 314 316 316 314 314 312 307 304 307 309 309 310 312 311 312 314 314 316 315 312 311 314 315 313 315 317 315 313 312 313 312 307 310 320 315 309 312 313 310 312 312
300 302 303 302 301 301 300 301 302 302 305 306 305 305 306 306 307 309 310 309 309 310 310 310 311 312 312 311 311 313 314 314 313 313 315 314 312 312 310 309 311 312 315 317 313 310 312 314 314 316 319 316 309 304 302 303 306 309 311 310 309 311 311 313 317 318 316 313 313 313 313 315 318 318 317 316 314 310 305 305 310 311 310 313 313 312 313 312
301 301 302 302 302 301 301 301 302 302 303 304 305 306 306 306 307 309 310 310 309 311 312 310 310 310 311 310 309 312 313 312 312 313 314 315 313 309 307 309 312 314 314 314 313 312 313 316 315 315 318 319 314 310 308 306 306 310 314 311 308 309 310 311 312 311 312 316 317 316 315 313 314 318 320 318 316 315 312 308 305 307 310 312 312 312 313 313
301 301 302 302 302 302 302 302 302 302 302 303 304 305 305 305 306 307 309 309 309 310 311 310 310 308 309 310 309 311 312 310 311 311 310 312 312 307 305 308 311 312 311 309 309 311 314 317 314 313 314 314 314 316 319 315 309 309 314 313 308 308 309 310 312 310 312 316 316 314 313 311 311 314 315 314 313 314 312 308 306 308 310 310 311 311 311 312
302 302 302 301 301 302 302 301 301 301 302 303 303 304 305 305 305 305 307 308 307 307 308 310 309 308 310 311 309 310 311 309 310 311 310 314 315 308 303 305 307 307 308 307 307 310 315 315 312 314 315 311 311 315 317 315 313 313 315 312 309 308 308 310 313 313 312 313 311 311 312 311 311 311 311 311 311 310 310 309 308 308 309 310 311 311 311 312
303 303 302 301 301 301 301 301 301 301 302 302 303 304 305 304 304 305 306 307 307 307 308 309 309 309 310 310 309 311 311 308 308 309 311 315 316 309 303 303 306 305 306 306 306 309 315 313 311 313 313 311 311 313 313 313 315 317 316 313 311 308 307 309 311 312 312 311 311 311 310 310 310 310 310 310 310 309 310 309 307 307 309 310 310 310 311 311
303 304 303 302 303 302 302 302 301 301 302 303 303 304 304 304 304 304 306 307 306 306 308 309 310 310 310 310 310 310 310 309 308 308 309 311 311 309 306 305 304 304 307 307 306 310 314 313 312 312 311 311 311 310 311 312 312 313 315 315 313 310 308 308 309 310 311 311 311 312 312 311 310 309 310 310 309 309 309 309 308 308 309 309 309 310 310 310
302 302 302 303 304 303 302 302 301 301 302 302 303 304 304 304 304 303 306 308 307 306 307 308 309 309 309 310 310 310 310 309 308 308 308 308 309 309 309 309 306 302 305 309 308 307 311 315 315 312 309 310 311 310 310 309 309 309 311 312 312 310 309 309 309 310 310 310 311 313 314 312 309 309 310 309 309 309 308 308 307 307 307 307 308 309 309 310
303 303 303 302 302 301 301 302 302 302 302 302 304 304 303 303 304 303 305 307 308 307 307 307 308 309 309 310 309 309 309 309 310 310 309 308 309 309 309 312 312 305 302 308 309 305 307 314 314 311 310 310 310 311 310 309 308 308 308 309 310 310 309 308 309 309 310 310 310 311 312 311 309 309 309 309 308 308 308 308 307 307 307 306 307 308 309 309
304 304 303 303 302 302 301 301 301 302 302 302 303 304 303 304 304 303 304 305 306 308 308 307 308 309 310 309 309 309 308 308 310 310 309 308 308 308 307 309 313 312 306 306 308 307 307 310 310 310 310 310 310 311 309 308 308 307 306 307 308 310 310 308 308 309 310 311 310 310 310 310 309 309 309 309 309 308 309 308 307 307 307 306 306 307 307 308
303 303 303 303 303 304 302 302 302 302 303 302 302 303 304 304 304 303 303 303 303 305 306 306 308 309 308 308 309 308 307 308 308 307 306 306 306 306 306 304 306 312 310 306 307 308 307 309 311 311 310 310 312 313 309 308 308 307 307 306 306 308 309 308 308 309 309 310 310 310 310 309 309 310 309 309 309 308 308 308 306 306 306 306 306 307 307 307
Wind_Speed
13 14 13 13 12 11 10 9 9 8 7 6 6 6 6 6 8 9 9 9 8 9 9 8 9 10 11 13 14 14 14 13 15 18 20 16 11 10 10 9 10 11 14 16 14 12 11 11 9 9 12 12 12 14 14 14 14 10 4 4 6 5 5 4 4 5 3 4 5 9 12 7 6 11 9 8 10 13 15 16 17 18 19 20 21 22 22 23
12 13 14 14 14 13 12 11 10 9 8 7 7 7 8 9 10 11 11 11 10 10 10 10 10 10 12 13 14 15 14 15 18 17 13 9 7 7 7 10 13 15 17 17 17 15 12 12 10 9 13 12 11 14 13 12 14 9 3 4 7 4 3 5 6 7 6 6 7 9 13 9 8 10 9 8 9 11 10 14 19 21 23 23 24 24 24 25
12 13 14 14 15 15 14 13 11 10 10 9 9 9 9 10 11 11 12 12 12 12 12 12 11 10 13 14 16 16 15 17 18 12 5 5 7 9 9 11 13 14 14 13 14 14 14 14 10 8 10 12 12 14 12 10 10 9 6 4 6 5 4 11 14 15 16 15 9 10 17 16 15 17 12 8 11 10 8 15 16 18 26 29 30 29 27 28
12 13 13 14 15 15 15 14 13 12 11 11 11 10 10 11 12 12 12 12 13 13 13 13 11 11 13 15 16 15 16 16 11 8 5 6 9 9 8 8 8 8 6 8 10 13 15 15 10 8 9 11 13 12 9 10 8 7 8 5 5 6 6 14 22 23 26 24 16 14 16 17 22 24 16 11 10 7 12 24 22 23 30 32 34 32 28 27
14 13 14 14 14 15 15 15 14 14 13 14 13 12 12 12 13 13 13 13 14 14 14 14 13 12 13 15 14 13 13 8 4 8 8 8 10 10 6 5 6 5 3 6 9 13 15 14 9 7 7 8 10 7 7 15 13 4 6 9 9 9 5 13 24 23 24 26 21 16 14 16 21 21 18 16 10 12 23 28 25 26 29 30 34 32 26 25
15 15 15 14 14 14 15 15 15 15 15 16 15 15 14 14 15 15 15 15 15 15 15 14 14 13 14 14 13 12 8 4 8 11 12 13 13 11 7 6 5 3 3 5 8 12 14 13 7 5 5 6 6 5 7 17 17 6 5 8 14 16 10 15 23 20 21 21 14 13 17 20 17 14 22 22 18 28 38 33 28 31 33 34 36 33 28 26
15 15 15 15 15 15 15 15 16 16 16 16 16 16 16 16 16 16 16 16 16 16 15 16 16 15 14 13 13 12 11 14 16 13 13 13 11 10 7 6 4 4 3 5 8 11 14 13 10 5 2 4 5 6 10 15 14 8 5 5 13 20 17 23 27 24 24 20 19 22 22 20 15 15 23 22 23 40 45 38 37 40 41 40 39 38 35 33
16 15 15 15 15 15 16 16 16 16 16 16 16 17 17 17 18 18 18 17 17 17 17 17 16 16 14 12 11 11 15 19 14 10 12 9 8 10 9 6 3 4 3 5 7 10 13 14 12 5 1 4 4 5 9 9 7 6 7 8 12 17 20 26 28 28 27 24 27 27 20 21 25 25 22 21 32 46 44 37 41 45 44 41 41 43 42 42
18 17 15 15 15 15 16 16 17 17 17 16 16 16 16 17 18 18 18 18 18 18 18 18 17 17 14 12 10 9 16 16 10 9 9 6 7 9 10 8 5 5 3 5 7 9 13 14 11 5 2 5 5 7 7 3 4 6 12 15 13 16 20 23 24 24 25 25 25 19 15 24 32 25 18 28 45 51 43 39 46 48 46 44 43 44 43 45
19 18 16 15 14 14 15 16 17 18 17 17 16 16 16 16 17 17 17 18 18 18 18 17 17 16 14 12 6 6 14 14 9 9 7 7 8 7 8 9 8 6 3 6 7 9 13 12 10 6 5 7 5 9 6 3 5 7 12 14 14 17 20 19 18 23 25 24 25 17 13 26 28 12 12 32 42 37 33 37 41 40 39 39 38 40 40 42
18 18 17 15 14 14 14 15 16 17 18 17 16 16 16 16 16 16 17 17 18 18 17 16 16 15 13 11 9 9 16 15 12 10 8 8 9 8 8 8 9 7 4 7 8 10 12 12 10 8 5 5 5 8 7 6 8 9 9 8 12 14 16 16 14 23 21 15 23 18 13 23 16 6 22 36 24 16 23 29 31 30 34 36 37 39 39 40
17 17 17 16 15 15 14 15 16 17 18 17 16 16 16 16 15 15 16 16 17 16 16 16 15 14 12 13 17 16 17 16 13 10 8 9 9 9 8 8 8 6 6 8 9 10 12 13 12 11 8 4 4 5 6 7 8 10 6 4 9 8 10 15 17 23 15 10 20 13 9 16 8 15 40 41 22 21 31 33 31 32 36 37 36 37 36 36
16 17 17 16 16 16 15 16 16 17 18 17 16 16 16 15 14 15 15 15 16 16 16 15 15 14 11 14 20 19 16 15 13 10 10 9 9 8 7 7 6 6 7 8 9 10 13 14 13 14 13 7 3 4 8 10 8 7 3 2 6 6 7 13 15 17 12 13 19 9 5 13 11 24 41 36 28 30 34 33 30 30 30 28 27 29 30 30
17 17 17 17 17 17 16 16 16 17 18 17 16 16 15 14 14 14 14 14 15 15 15 14 14 12 11 16 21 18 16 14 11 10 10 10 9 7 7 7 5 5 7 8 10 11 12 13 12 11 12 11 8 8 10 8 4 3 2 2 2 2 5 8 7 6 6 11 16 13 6 14 14 20 27 26 25 24 25 27 26 25 25 25 28 30 30 29
17 17 17 17 17 17 16 16 16 16 17 17 16 15 15 14 14 14 13 14 14 15 15 13 13 10 12 19 19 13 11 10 9 7 7 9 8 7 8 7 5 4 6 8 9 12 13 12 11 7 6 9 9 7 6 4 3 1 2 4 2 3 5 8 7 6 7 7 12 15 6 12 14 17 21 19 16 15 18 22 24 26 29 33 36 36 34 32
18 17 17 17 17 16 15 15 15 15 16 16 14 14 14 14 14 13 13 13 13 14 13 11 11 8 8 13 12 8 9 9 7 4 6 8 8 7 6 4 3 4 6 7 7 10 12 11 7 5 4 3 4 3 2 4 5 2 3 4 4 5 4 6 7 4 6 2 6 10 6 8 9 10 16 14 11 14 16 20 26 31 36 37 37 36 34 33
19 18 18 17 17 16 15 14 14 14 14 13 13 13 13 13 12 11 12 12 11 11 10 8 7 6 9 11 9 8 9 8 7 5 5 7 9 6 3 2 1 4 3 2 3 6 10 9 4 3 3 2 3 4 0 4 5 3 2 4 5 5 4 4 6 4 1 3 4 9 9 13 12 10 20 23 21 21 19 23 29 34 37 36 35 35 34 34
18 19 18 18 17 16 14 14 14 13 13 12 12 11 11 11 10 9 11 11 9 6 7 8 5 2 9 13 10 7 5 7 7 6 6 8 9 6 3 2 1 3 1 3 3 6 8 6 3 1 1 2 2 4 4 6 5 4 3 3 4 4 5 6 5 3 2 2 6 7 10 17 18 16 22 29 28 23 22 25 30 34 36 35 34 34 35 36
18 18 18 18 17 16 15 14 13 12 12 11 11 9 7 7 7 8 10 11 11 6 4 8 9 4 5 7 8 7 5 6 6 7 8 10 9 6 4 3 3 4 2 3 1 3 6 2 2 1 1 5 6 6 9 7 6 6 4 3 4 5 7 7 6 5 3 4 6 8 10 15 18 17 17 24 26 22 23 26 28 32 32 32 33 34 35 36
17 17 18 17 16 16 14 14 13 11 10 10 10 8 5 5 5 5 10 16 18 16 14 13 13 12 9 6 7 8 7 8 7 8 9 11 10 5 3 4 4 3 2 3 1 2 5 2 2 5 6 8 9 9 10 5 2 4 3 4 6 6 8 8 7 6 3 4 7 7 10 14 18 17 16 22 22 18 19 20 24 28 29 31 32 33 32 30
17 16 17 17 16 15 14 14 12 11 10 11 11 9 6 4 3 3 7 14 19 21 22 21 19 20 17 10 8 8 8 8 9 10 10 12 12 5 4 5 3 1 2 4 2 1 4 4 7 8 8 9 9 8 8 7 6 6 4 5 6 5 8 9 7 6 2 2 5 5 9 15 17 16 17 20 16 15 16 15 20 26 27 30 31 30 29 24
15 15 16 16 15 14 13 13 12 11 11 12 14 13 8 5 6 6 7 10 16 19 21 22 23 25 23 18 13 11 10 8 9 12 11 12 12 8 6 6 3 2 2 3 2 1 2 6 10 8 6 7 7 7 7 7 6 5 4 4 5 4 5 8 5 3 1 1 4 7 9 16 18 17 19 19 15 17 21 20 23 26 26 29 30 28 25 18
16 15 15 15 14 13 13 12 12 11 11 12 14 14 10 7 7 6 7 9 13 16 18 20 24 27 25 20 16 15 13 9 9 13 14 12 12 11 8 6 4 2 1 4 4 3 2 7 8 5 6 6 6 6 5 5 5 4 4 3 6 3 2 5 4 4 3 2 4 7 9 14 17 16 17 17 15 17 22 23 25 25 26 28 28 25 20 12
17 16 15 14 13 12 12 11 10 10 11 12 11 11 10 9 6 3 7 8 7 7 10 12 15 19 20 16 14 16 16 12 9 11 15 16 11 9 8 5 5 2 3 6 6 5 7 7 3 3 5 7 5 4 4 5 4 4 5 5 6 6 4 6 5 7 7 3 2 4 7 9 10 10 11 9 8 11 13 14 18 20 22 23 22 18 12 7
18 17 15 14 12 11 10 9 9 10 10 9 8 10 12 9 5 2 5 4 5 4 4 5 5 6 9 10 11 12 12 13 13 12 14 19 14 6 4 5 5 4 5 6 5 5 10 6 3 2 2 5 5 4 5 6 3 4 5 8 10 8 7 8 6 7 6 5 3 5 4 6 5 7 9 8 8 9 7 7 12 17 18 17 15 12 10 8
18 17 15 14 12 10 9 7 9 10 9 8 8 10 12 10 6 1 2 3 4 4 3 4 5 4 6 10 12 9 3 7 14 16 14 18 17 8 2 4 4 4 5 5 2 3 5 3 2 3 3 4 3 5 4 6 2 4 3 5 7 6 5 7 4 2 1 4 2 4 1 6 8 8 11 11 11 13 12 8 9 14 16 14 13 11 9 9
19 17 15 14 12 10 8 7 9 10 7 8 9 9 11 11 8 3 2 4 4 2 4 3 4 5 6 10 15 11 1 3 7 15 17 16 16 11 4 3 3 3 3 4 1 3 2 1 2 2 3 4 4 5 5 7 4 4 3 3 4 3 3 3 2 2 3 3 3 1 4 4 8 8 8 8 9 12 13 11 8 10 12 12 11 9 8 9
19 18 15 14 13 12 11 10 10 9 8 9 10 10 10 12 10 4 4 2 2 2 3 3 4 5 7 13 18 10 0 1 2 8 15 15 13 9 5 5 5 4 3 5 3 4 2 2 3 4 3 4 5 5 5 8 4 4 3 3 4 3 3 3 3 3 1 3 5 3 3 3 7 7 6 5 6 10 10 10 8 6 7 9 11 11 10 10
19 18 16 14 13 14 15 14 11 9 10 11 11 11 11 13 9 4 4 1 2 3 2 4 5 5 7 12 13 6 0 1 0 4 10 12 12 6 2 6 4 2 3 4 5 5 2 3 4 5 4 5 5 3 4 7 4 3 2 3 4 4 3 3 2 1 2 1 6 6 4 4 5 6 5 2 3 7 8 7 6 4 4 8 12 12 11 10
19 19 17 15 13 13 15 15 12 10 12 12 11 13 14 12 6 5 1 3 2 2 2 5 4 4 7 7 4 4 2 1 0 5 5 6 10 5 1 3 2 0 3 2 4 6 3 1 1 3 4 4 3 1 0 3 3 0 3 3 4 4 4 3 2 2 2 2 7 7 5 3 5 5 5 4 3 5 4 3 5 4 3 9 13 11 9 8
18 19 18 16 14 14 14 15 14 13 14 12 13 18 16 7 4 4 4 3 0 1 3 3 2 3 7 4 2 4 3 1 2 6 3 1 4 3 0 1 1 2 3 4 4 5 3 1 1 3 4 4 5 2 1 1 1 2 3 3 3 4 3 4 4 3 1 5 6 5 3 4 5 5 4 5 5 4 5 1 4 6 6 10 13 11 11 10
18 18 17 15 15 16 15 15 16 16 15 14 18 20 12 3 1 3 4 3 1 3 2 3 2 3 5 1 1 5 4 2 4 5 3 2 3 4 3 4 4 2 2 5 3 4 3 4 3 1 3 5 6 3 1 4 4 4 3 3 2 3 2 2 2 1 3 5 4 3 2 4 7 7 7 10 11 9 7 5 7 9 9 11 15 14 12 11
17 17 16 16 16 18 18 15 17 19 16 18 21 14 6 3 4 6 4 2 1 3 1 3 3 4 5 2 2 4 3 2 5 4 3 2 2 5 5 5 5 2 1 4 1 2 3 5 1 2 2 5 7 5 2 1 2 4 4 4 4 2 1 3 3 2 3 3 3 3 0 2 6 6 8 12 12 11 10 11 15 16 13 14 17 17 13 10
15 16 17 16 16 18 20 18 19 20 18 21 19 7 4 4 5 4 5 5 2 1 1 3 4 4 4 3 4 4 2 3 5 6 3 3 2 4 5 7 6 2 1 2 2 3 2 5 2 4 1 3 6 5 5 5 3 4 4 5 4 4 4 4 3 3 4 3 3 3 1 3 4 3 6 9 9 10 13 16 18 19 18 18 16 17 13 11
14 15 17 17 18 18 19 21 22 20 20 22 13 3 5 6 4 3 4 4 2 0 2 2 5 4 2 3 3 4 3 3 4 6 4 4 3 4 4 6 8 6 3 2 3 3 3 5 4 0 1 2 3 2 4 6 2 2 3 4 2 4 4 2 2 4 2 2 3 2 3 5 4 8 12 9 9 10 10 13 16 20 21 17 15 18 15 14
13 15 16 20 20 16 18 23 23 21 23 19 7 4 7 5 4 5 4 3 4 5 4 3 3 3 2 3 3 5 3 1 3 4 3 3 4 5 5 5 8 11 8 5 3 2 2 4 4 2 1 1 2 2 2 2 2 1 3 3 5 4 4 2 2 1 3 1 4 1 4 6 3 9 13 8 7 7 3 4 8 13 14 12 17 19 17 18
15 16 18 23 19 12 18 24 25 24 22 14 7 7 6 5 6 6 3 4 4 6 7 2 2 4 4 2 3 5 2 1 3 3 3 3 3 6 5 4 7 14 15 7 2 3 3 3 4 1 1 2 1 1 2 1 3 4 3 5 3 1 3 3 1 3 3 2 4 2 5 6 2 4 8 8 7 8 5 2 2 5 7 11 17 20 20 23
15 15 20 24 18 14 18 24 26 25 18 9 7 6 3 6 7 5 6 6 3 5 6 4 5 4 5 4 3 4 4 3 3 3 3 2 4 5 6 4 6 13 18 11 2 3 3 2 5 1 2 3 1 2 1 2 2 3 3 2 1 3 1 1 2 1 0 2 4 3 5 5 5 5 6 7 9 10 7 3 1 5 7 10 17 21 21 23
13 11 14 17 16 19 21 24 27 23 13 7 8 6 4 6 6 6 10 8 3 4 4 5 4 2 4 6 3 4 5 5 5 4 3 3 4 5 7 5 5 8 15 13 5 2 2 1 4 2 1 2 2 2 4 2 1 1 1 2 1 3 3 2 2 3 3 2 2 4 5 4 7 6 6 9 11 9 7 5 5 7 9 13 18 20 22 23
13 7 7 9 14 22 24 25 24 17 7 6 8 6 3 5 7 11 15 11 3 4 4 4 4 3 4 5 3 4 5 5 6 4 3 4 4 4 6 7 3 3 6 9 5 2 1 1 3 3 3 1 2 4 6 7 5 3 2 2 1 2 2 1 2 2 4 2 2 1 5 7 6 4 7 10 10 8 7 6 7 7 11 17 19 20 23 24
15 5 6 7 16 27 29 23 15 8 4 4 6 5 3 4 5 9 15 15 7 4 4 4 6 6 5 4 3 4 5 4 6 4 3 5 4 4 7 10 8 6 5 4 3 4 2 2 2 1 1 3 6 5 4 7 7 6 6 6 5 4 3 2 3 2 2 3 3 3 4 10 6 4 6 8 8 7 6 6 7 8 10 15 19 22 23 25
16 4 4 8 21 33 30 15 6 5 5 4 5 8 6 3 3 6 9 11 7 4 2 3 4 5 5 5 4 5 6 4 5 5 4 6 7 5 6 11 14 13 8 3 4 4 3 3 2 3 4 5 7 5 1 2 3 3 3 4 5 4 5 5 5 3 1 2 2 4 2 9 6 3 4 5 5 7 6 7 7 7 7 8 12 19 21 22
16 8 6 14 26 33 23 6 3 5 5 4 4 9 10 4 2 5 6 6 5 3 3 3 4 6 6 4 4 5 6 5 6 7 5 5 8 8 7 14 17 12 6 2 2 4 4 2 2 4 4 3 4 4 3 3 2 1 4 4 6 5 5 6 5 3 3 3 3 3 3 8 6 3 4 4 5 7 6 7 7 8 6 3 4 12 18 21
17 11 11 19 29 30 16 4 5 8 7 4 4 9 13 8 5 6 6 6 6 5 4 5 4 5 6 3 5 6 7 6 6 7 6 4 5 7 8 17 19 9 4 4 4 7 6 2 3 0 4 5 6 4 3 4 1 4 4 4 7 6 5 3 1 3 2 5 8 5 6 9 5 3 5 7 6 7 8 8 7 8 8 6 6 8 11 15
12 8 11 23 34 31 15 3 1 5 8 8 6 8 11 9 7 11 11 8 8 6 4 5 4 5 4 3 3 4 7 7 6 5 4 3 4 3 6 16 19 10 5 5 6 10 8 3 5 5 4 5 4 3 3 3 2 3 3 5 9 10 10 5 2 4 4 7 8 7 8 13 8 5 9 12 11 9 11 11 11 14 16 16 16 16 17 17
10 5 6 16 27 28 20 11 4 2 5 9 7 6 11 9 5 12 15 10 9 8 3 2 4 5 4 5 4 5 8 8 6 3 3 4 4 2 2 10 13 8 4 4 8 9 4 1 6 8 8 9 9 8 6 4 4 4 6 8 10 11 13 8 3 4 7 6 6 9 12 16 16 14 14 15 14 14 13 10 11 18 23 25 26 27 27 25
8 5 6 9 12 15 17 16 10 3 2 6 6 5 13 14 6 8 13 11 10 12 6 2 5 7 6 7 7 6 8 8 6 4 4 4 3 3 1 3 6 6 4 4 8 7 3 2 8 9 11 12 11 10 6 5 5 7 8 9 10 10 12 10 8 10 8 5 8 12 13 14 18 20 20 19 17 15 13 10 11 18 26 31 31 30 29 29
10 6 12 17 9 5 11 16 13 9 6 6 5 3 10 16 12 9 9 5 7 13 9 4 8 13 11 10 8 6 6 7 7 5 6 5 3 2 1 1 3 4 3 3 5 5 3 5 8 8 11 13 12 11 7 5 6 6 7 10 11 12 13 14 16 17 12 10 11 9 11 15 19 21 24 23 17 12 12 15 17 20 26 28 26 26 27 30
13 4 10 20 11 3 11 17 16 15 13 10 6 7 11 16 16 12 7 2 4 10 10 9 13 16 13 10 9 8 7 7 8 6 6 7 6 5 2 2 2 1 3 3 2 3 3 4 6 7 9 11 12 12 9 7 8 9 9 11 9 12 15 18 20 20 19 18 13 7 11 16 17 19 23 24 21 15 14 18 19 21 23 22 21 24 28 31
21 13 10 12 8 5 8 12 13 12 13 11 9 12 13 13 14 12 7 7 7 6 10 17 15 10 12 13 12 16 16 11 9 7 6 7 7 5 4 4 3 1 1 3 1 2 3 4 3 3 4 8 9 12 12 9 10 14 15 12 8 9 13 17 18 16 15 15 15 14 14 14 17 21 20 21 25 23 19 20 22 25 24 20 21 26 29 32
27 23 16 9 5 6 7 6 8 9 9 10 13 15 12 11 12 10 7 13 17 9 10 20 16 7 10 16 19 23 18 11 10 13 13 14 11 8 7 7 6 5 3 4 2 2 4 3 2 3 3 7 6 9 12 8 10 18 19 13 11 13 15 16 13 11 11 15 17 15 12 14 20 18 11 14 20 21 21 22 21 23 23 22 25 30 33 34
25 21 18 11 5 7 8 4 7 9 8 10 15 14 11 11 11 10 8 13 19 18 15 16 13 8 8 17 24 26 18 15 22 25 19 16 12 9 10 10 9 9 7 5 3 3 5 4 2 2 4 7 5 5 5 7 10 18 14 15 19 21 19 15 10 12 17 17 15 14 14 17 16 12 11 16 17 18 22 23 19 17 19 23 29 32 35 36
Wind_Direction
235 238 240 243 247 248 251 256 259 262 263 266 273 275 276 283 293 292 288 286 288 293 295 300 308 318 326 325 319 313 310 306 302 298 292 294 298 294 288 278 277 281 277 269 261 260 246 220 217 220 215 213 217 223 220 221 219 204 179 212 229 217 213 214 204 230 244 251 246 242 249 236 252 270 268 270 260 256 258 250 247 246 247 253 262 269 268 270
237 239 242 245 248 251 252 253 258 263 265 270 273 273 277 285 293 292 289 289 289 292 290 292 299 308 319 324 320 315 314 315 316 311 301 300 303 307 305 292 292 285 274 264 252 248 243 221 217 222 215 212 212 215 214 213 210 200 159 212 226 203 210 249 255 274 278 275 286 289 290 283 270 279 278 278 269 262 266 263 259 256 255 258 261 264 267 270
241 240 243 245 248 251 252 253 256 260 264 267 269 272 276 281 287 289 289 290 288 290 290 292 297 304 312 317 318 316 316 319 326 333 330 326 321 312 305 294 295 290 270 252 240 234 234 225 221 229 223 218 214 209 206 200 203 206 201 226 241 220 248 260 263 273 272 278 295 297 298 297 288 281 271 270 271 265 259 260 258 256 259 264 266 266 268 271
245 243 244 245 248 250 251 254 254 258 261 262 265 267 272 277 280 285 288 287 286 287 289 291 295 302 306 310 316 318 318 320 327 348 336 326 333 314 299 306 311 307 266 229 226 222 227 226 226 241 234 226 222 214 205 196 196 205 205 215 231 218 243 253 255 262 265 272 279 284 291 290 287 281 266 259 271 267 252 256 256 257 263 269 274 275 273 272
247 245 245 245 246 249 251 253 254 255 256 258 261 263 268 274 278 283 285 286 286 285 285 287 291 297 300 306 313 313 319 325 316 337 317 293 315 306 288 318 332 334 276 217 220 220 223 224 234 252 229 220 221 215 218 212 205 205 220 220 225 223 231 252 254 257 259 265 271 278 280 278 281 276 260 250 250 254 255 259 263 265 270 275 278 280 277 271
249 245 245 245 246 248 252 253 254 254 255 258 260 263 267 271 276 281 282 286 286 286 286 285 288 291 297 303 306 305 302 272 282 309 301 281 289 285 274 295 301 309 276 223 227 223 220 221 234 257 224 217 215 202 230 222 211 219 253 227 231 234 235 253 257 258 258 259 262 267 270 274 277 274 265 253 247 257 259 261 267 270 273 277 278 277 272 266
257 250 247 248 248 251 254 254 255 255 256 259 262 266 270 272 275 277 280 284 285 289 289 286 288 289 295 300 299 294 265 269 290 299 293 280 268 262 266 291 277 260 254 230 229 218 219 222 224 246 253 240 220 208 234 229 214 219 256 247 241 240 239 250 255 259 260 259 263 267 271 272 266 270 269 260 260 263 262 265 268 270 272 274 274 271 268 265
264 259 252 250 251 253 256 256 255 256 257 260 264 267 271 274 274 276 279 282 285 289 289 288 289 288 293 294 292 285 268 281 303 305 296 279 249 251 260 294 276 234 245 243 232 213 220 225 224 234 295 251 235 229 242 239 226 215 240 252 250 247 246 252 256 259 260 261 265 268 270 265 262 266 270 270 268 264 264 268 269 270 271 270 269 269 269 267
265 264 257 252 252 254 255 257 258 258 259 259 262 265 269 273 274 276 277 279 282 285 288 290 289 289 291 288 285 278 279 294 310 306 303 278 257 256 258 278 259 227 229 235 236 218 217 221 226 223 260 278 279 264 254 237 238 209 225 239 245 252 253 255 256 256 258 259 262 266 268 267 267 269 273 267 263 264 267 270 269 268 268 267 267 267 268 269
262 262 257 251 252 255 256 258 261 262 262 261 260 262 265 268 272 275 274 276 278 282 288 290 290 289 287 285 267 261 291 303 300 298 300 270 266 266 265 266 248 243 230 223 237 233 223 216 217 215 265 292 281 266 258 214 247 241 238 243 247 254 257 257 258 260 260 260 258 256 262 268 269 271 269 262 261 266 267 265 265 265 265 266 267 267 269 269
261 258 255 252 251 255 258 260 262 263 264 264 262 261 262 265 270 273 273 274 276 282 287 288 290 286 284 275 237 256 298 302 290 290 289 268 259 265 273 260 249 252 249 241 242 243 233 220 218 221 257 288 272 276 275 246 258 273 270 268 263 264 269 264 259 260 258 259 255 246 258 268 269 246 248 253 255 261 262 262 263 264 267 270 271 272 272 271
260 256 254 253 254 257 259 260 262 264 266 266 264 263 262 264 268 271 273 275 277 281 284 287 286 281 281 264 253 277 300 294 286 282 276 268 255 260 265 255 256 259 262 259 249 246 236 226 226 225 229 259 289 291 292 284 283 286 288 286 280 297 288 262 253 255 246 249 252 240 266 269 245 232 247 251 252 260 266 268 269 271 275 276 277 276 275 275
258 256 256 255 256 259 260 260 262 265 266 266 264 263 263 265 268 271 272 274 275 277 280 282 279 279 274 261 274 296 300 287 284 272 263 262 255 255 247 244 256 257 263 261 251 246 236 229 228 229 233 240 274 281 297 306 298 289 281 219 281 328 295 259 251 248 233 246 241 205 265 264 237 240 250 257 257 259 265 268 272 275 278 281 284 284 282 279
256 256 258 258 259 260 259 259 261 264 266 266 264 262 262 263 264 268 271 272 273 274 276 275 273 274 260 267 289 300 292 283 274 264 255 248 246 241 229 237 251 256 268 264 249 238 229 226 224 230 239 237 252 285 309 319 295 284 288 248 269 291 280 278 269 216 209 250 216 176 242 260 250 253 257 261 257 255 261 268 272 271 278 288 291 291 287 281
255 255 257 259 259 259 259 258 258 261 263 264 263 262 260 260 259 262 266 267 268 269 271 270 271 270 264 278 292 293 281 268 257 257 242 233 233 223 219 230 247 271 284 276 250 229 219 217 216 216 233 240 249 279 318 335 323 342 260 285 292 225 269 299 289 191 198 251 186 171 231 263 260 265 265 263 255 254 261 269 273 275 283 289 290 290 286 281
254 255 256 258 259 260 260 258 257 259 262 263 263 260 258 257 257 259 261 261 262 264 266 266 265 264 275 288 291 280 271 253 242 236 218 216 204 205 216 221 261 292 290 281 251 223 210 205 208 208 212 222 207 210 313 321 320 353 205 253 269 244 280 307 297 234 212 224 173 196 231 267 265 266 274 275 268 269 270 276 280 281 284 285 286 287 284 282
255 256 257 259 260 260 260 258 257 258 261 262 260 257 255 255 256 256 254 252 249 250 255 251 252 262 265 270 271 272 269 245 230 213 199 192 188 197 205 181 305 296 282 257 219 192 185 185 178 213 217 177 133 132 219 276 274 301 243 239 253 249 268 291 304 316 216 135 204 232 242 260 268 277 282 282 281 281 279 279 281 281 281 282 283 282 281 280
257 257 258 259 260 261 259 257 256 257 260 259 257 254 252 251 249 243 239 238 230 229 250 234 204 276 269 256 244 249 255 226 214 200 188 186 192 205 197 181 239 258 207 119 140 143 158 173 152 176 241 187 150 124 185 232 219 228 215 217 268 271 260 262 273 299 319 232 229 238 251 261 268 274 275 276 278 277 273 274 276 276 277 279 280 279 278 276
259 259 258 259 260 260 259 257 255 256 255 253 251 244 238 239 232 233 229 216 204 201 248 218 185 180 277 255 223 223 228 206 199 193 189 187 192 203 190 179 201 209 154 98 97 149 160 145 111 168 238 206 205 184 205 212 175 194 202 211 272 284 272 266 260 260 257 264 251 239 253 264 270 273 274 277 278 272 270 272 271 272 274 276 277 276 274 273
261 262 261 259 258 258 258 256 253 252 248 243 237 219 206 215 212 228 223 218 227 240 250 237 220 229 253 257 225 225 218 207 214 203 187 186 188 187 169 170 179 183 138 141 201 196 174 175 197 209 214 208 212 212 222 233 211 246 267 275 275 275 281 279 274 271 218 235 263 246 254 267 271 276 278 278 277 269 266 268 267 269 272 274 274 274 274 275
261 263 263 261 257 256 256 255 253 247 240 234 222 205 194 208 222 260 238 239 252 255 251 249 246 245 248 250 246 237 223 220 226 210 192 194 197 186 171 170 144 193 227 164 156 174 162 215 237 219 214 215 216 217 228 251 271 276 270 284 284 263 275 279 277 287 242 212 272 278 280 277 275 280 279 276 273 262 257 256 263 268 271 273 274 275 279 283
262 261 262 262 258 255 254 255 251 242 236 225 217 212 207 218 241 268 276 273 273 265 255 249 245 246 245 243 246 239 227 228 227 214 200 197 202 196 172 157 139 228 230 126 114 215 188 244 245 223 209 215 225 217 212 231 245 254 248 281 284 264 287 285 275 309 11 195 279 310 302 286 284 282 276 273 266 260 259 254 257 264 267 271 275 280 285 286
263 261 261 261 258 255 252 253 249 242 235 223 222 222 217 225 235 259 284 283 283 273 258 245 239 241 239 235 235 228 223 227 229 223 210 198 201 197 173 147 157 191 165 158 174 175 212 249 243 219 197 200 228 223 204 231 243 232 228 261 274 280 328 285 291 347 339 261 275 309 302 286 287 282 275 275 267 264 265 259 256 258 260 268 277 281 280 273
262 260 260 261 258 253 249 250 247 240 235 227 227 224 216 221 224 288 297 276 284 277 251 244 239 240 239 231 226 221 222 228 230 226 214 204 194 187 187 159 145 182 205 189 184 203 246 244 184 143 174 186 218 229 201 226 255 242 222 225 256 269 245 242 297 339 324 306 312 334 308 283 282 280 282 289 278 264 261 261 260 258 261 270 275 268 249 233
259 259 258 257 256 249 242 242 235 231 231 221 215 208 204 208 202 319 315 292 292 277 225 225 213 224 230 214 209 212 219 232 232 229 217 205 192 172 191 171 153 211 219 185 173 228 259 257 163 152 183 174 207 244 207 193 246 290 235 218 239 259 259 260 310 353 340 321 354 27 338 284 290 292 286 295 299 288 274 264 268 273 276 268 253 230 204 198
256 256 254 252 250 241 232 228 223 225 219 203 202 199 198 197 181 191 355 21 307 265 163 180 183 164 173 180 188 188 208 251 229 221 215 206 201 188 168 172 173 217 197 167 166 229 261 295 137 209 225 175 204 262 221 168 181 294 254 205 220 239 259 267 289 4 287 276 309 63 89 274 296 288 270 280 292 289 286 283 280 282 273 246 222 210 205 208
254 253 248 245 241 228 218 212 214 215 199 191 193 185 187 188 176 171 56 20 302 228 142 179 188 168 165 168 173 166 168 270 209 210 208 203 206 202 200 203 186 217 175 131 207 240 223 2 52 179 200 195 222 259 216 156 155 256 243 144 136 157 209 227 196 194 242 283 302 75 144 256 288 272 261 280 286 284 287 292 297 277 249 219 202 200 194 188
255 252 246 239 232 220 211 210 212 201 178 177 179 173 173 174 173 152 86 15 278 142 130 178 148 154 158 162 172 170 174 186 150 209 203 197 203 199 219 222 183 208 191 139 206 257 198 206 226 184 174 210 227 238 189 161 175 246 220 131 100 112 148 134 140 221 296 357 305 284 144 219 271 270 281 288 272 281 290 292 297 289 250 209 186 176 169 170
258 254 246 236 228 218 212 212 206 188 173 165 167 171 161 159 160 101 78 236 222 116 117 152 142 155 145 149 176 193 243 191 35 201 190 192 198 186 237 226 192 229 246 174 212 264 255 211 211 165 163 217 222 230 176 168 200 249 161 102 53 60 79 83 124 215 28 25 263 246 182 217 266 278 287 264 234 264 278 285 284 290 268 216 189 174 174 185
264 260 249 237 226 217 214 205 191 184 177 163 162 163 150 147 127 64 85 236 208 100 99 144 161 163 140 131 179 205 179 234 219 152 165 195 199 195 252 217 174 52 301 299 245 262 275 164 166 167 185 194 162 127 107 170 195 306 63 52 16 21 39 33 50 74 53 263 255 239 202 225 279 281 256 215 224 236 226 289 308 309 278 217 199 188 193 205
267 264 252 240 223 215 213 200 189 186 178 164 156 152 144 132 79 94 199 240 173 123 95 138 189 145 148 144 167 178 159 205 156 145 162 233 194 209 231 168 122 61 337 309 276 285 294 187 228 209 180 132 102 94 354 9 89 84 66 60 13 341 13 17 3 45 172 246 262 255 208 201 241 262 259 255 281 255 189 174 316 304 277 232 213 206 208 212
264 262 253 240 221 210 204 196 191 184 175 164 156 151 140 94 28 183 227 318 19 194 166 167 185 157 171 178 166 175 150 161 169 148 168 171 172 211 210 191 172 86 310 259 269 316 277 232 234 177 174 151 122 118 331 360 48 99 109 93 67 316 332 335 296 243 226 245 274 288 194 201 238 250 260 266 272 264 231 230 259 263 261 243 225 214 210 211
255 256 250 239 224 208 196 193 190 182 174 164 159 151 112 105 212 214 228 289 231 208 169 133 133 132 149 150 243 188 140 187 183 159 173 145 168 234 256 237 194 141 228 215 234 304 293 296 261 143 236 191 161 160 199 250 124 145 157 142 145 167 212 256 260 261 262 261 287 305 261 263 280 261 237 244 253 258 254 254 255 250 253 257 234 211 205 214
246 250 252 244 233 212 194 189 186 179 175 167 158 138 94 172 228 234 224 239 242 310 32 102 107 108 140 188 240 190 152 223 180 151 162 140 159 238 258 248 222 187 131 161 192 187 217 298 236 168 242 190 178 185 166 148 150 180 161 137 156 160 167 219 226 215 249 285 294 296 287 218 247 265 238 237 251 263 264 265 263 252 255 266 241 205 201 205
239 244 253 249 239 217 195 189 184 177 174 168 155 139 177 194 227 218 215 228 219 86 13 59 98 109 208 265 265 216 203 230 169 138 162 173 182 210 213 221 208 182 149 175 226 179 185 260 264 275 351 146 177 206 134 118 132 226 135 114 192 192 159 189 203 182 196 319 300 265 248 222 224 281 285 277 275 276 262 253 252 249 253 253 219 197 197 188
234 238 247 248 239 218 198 192 183 177 174 167 162 207 200 201 199 189 188 169 167 152 119 64 83 126 243 285 259 235 237 233 154 144 191 194 199 209 213 223 197 186 185 179 204 179 169 266 292 12 11 122 163 203 116 121 175 176 141 179 225 192 125 129 256 339 74 254 280 258 259 280 313 294 293 311 313 310 311 238 238 240 236 211 193 194 195 185
225 233 244 244 234 206 196 195 186 179 176 173 199 211 201 210 197 186 172 130 135 141 131 142 195 178 205 244 229 210 197 219 164 164 210 212 218 207 213 244 193 189 200 194 211 208 163 264 282 111 141 260 194 147 359 342 152 134 177 224 226 124 74 96 217 342 43 221 274 261 243 271 312 284 307 341 324 303 312 339 277 231 204 193 201 204 198 191
224 239 252 249 232 194 189 195 188 178 171 183 223 218 202 215 206 174 159 147 120 120 132 187 206 182 187 201 224 190 175 198 185 176 193 211 242 193 167 218 203 194 204 200 253 265 162 255 289 143 175 270 359 94 305 302 143 141 191 225 125 139 144 89 156 237 229 237 282 289 269 255 208 227 284 291 276 275 284 307 240 218 211 213 216 212 205 199
222 240 261 258 224 195 192 192 184 174 170 195 213 215 208 213 230 211 178 164 134 134 161 210 202 148 171 179 184 177 176 186 178 180 187 185 235 204 168 198 207 194 198 188 194 263 134 191 279 285 239 286 25 127 198 220 108 81 303 330 26 167 177 163 162 171 178 216 269 305 312 268 215 215 224 239 252 258 260 257 229 221 218 219 220 215 209 204
205 219 264 252 199 188 187 180 174 174 189 209 200 207 218 212 237 231 204 189 170 167 194 213 185 168 184 186 191 176 170 174 169 181 219 198 225 240 202 189 162 141 174 176 196 249 106 204 256 297 312 262 203 210 192 182 168 159 209 244 234 193 177 203 226 144 136 167 189 247 294 272 238 212 215 233 254 252 230 224 234 238 226 221 217 211 209 209
188 202 266 226 181 177 172 164 168 185 216 225 200 196 213 214 225 230 214 207 213 213 191 179 182 185 179 185 210 184 161 167 176 188 233 215 217 251 215 188 159 129 119 138 217 222 189 198 195 234 273 212 233 249 201 180 173 165 186 199 190 176 141 162 258 268 120 158 179 157 269 277 259 209 227 245 259 264 239 215 233 252 243 232 220 208 208 213
178 190 246 188 175 172 165 157 177 199 207 224 202 194 209 225 214 211 204 201 215 232 201 190 199 192 180 185 196 171 158 170 185 193 223 220 211 223 216 184 161 147 135 141 214 192 147 124 156 226 225 219 250 280 351 163 148 147 201 196 172 162 144 161 219 250 167 171 177 128 228 275 265 209 234 261 258 267 255 214 230 270 274 264 239 220 214 216
184 181 174 169 173 173 169 179 217 194 225 243 208 207 216 222 204 197 187 190 203 197 198 222 206 204 217 201 168 170 180 187 187 192 214 229 220 228 212 172 158 146 135 150 202 165 136 127 189 271 293 299 303 332 22 24 67 164 249 199 170 185 184 180 184 174 170 187 163 127 239 263 268 243 247 264 266 288 282 226 238 294 312 334 269 235 224 224
186 178 165 169 173 176 183 223 201 200 228 237 223 222 223 228 215 191 186 196 194 166 184 216 201 210 231 187 160 186 193 195 207 204 205 212 220 235 209 174 167 164 171 189 180 167 177 178 141 250 319 329 334 347 348 330 267 218 237 193 197 205 164 134 149 149 209 218 179 169 242 252 266 325 310 297 295 309 297 256 254 292 293 284 290 273 251 245
170 169 172 176 178 186 204 251 181 205 212 211 225 219 215 233 223 201 204 207 197 177 179 213 197 187 205 177 162 196 196 206 225 215 200 217 237 258 212 188 184 186 195 198 167 161 176 192 146 159 229 244 258 257 241 249 199 213 236 196 202 202 176 163 166 167 218 233 190 179 237 253 267 307 298 287 283 282 278 275 280 283 280 280 284 289 290 284
159 166 172 179 187 198 220 240 249 244 204 202 221 217 209 227 231 205 209 215 208 194 176 225 187 169 189 183 180 216 223 224 224 196 186 216 236 278 225 200 200 202 195 174 162 155 138 213 195 191 209 221 232 230 207 151 141 191 219 202 196 200 195 178 125 168 206 224 212 207 228 254 269 271 265 264 264 264 263 268 273 271 273 276 278 282 287 285
169 186 167 168 192 212 228 234 226 219 213 197 198 200 206 216 228 206 207 214 205 195 206 253 188 190 202 179 180 222 226 219 211 195 204 213 234 288 289 199 212 213 194 165 168 157 105 220 218 216 222 230 244 243 204 156 194 211 208 208 201 195 193 184 193 213 206 207 236 225 218 244 262 263 261 257 254 257 259 253 246 252 261 266 269 273 275 271
188 202 184 178 178 200 216 216 202 198 242 237 213 205 206 211 214 206 205 213 197 193 203 231 207 207 200 166 175 222 207 204 219 201 201 213 215 262 302 300 225 204 168 159 172 151 143 218 217 216 234 242 254 257 231 201 233 226 203 212 206 189 187 193 213 222 210 215 237 219 201 225 246 257 262 260 253 248 251 255 253 249 251 254 255 257 257 256
197 207 192 192 199 214 204 199 182 188 217 222 219 232 219 211 210 206 192 149 207 206 202 222 223 210 198 174 183 217 199 190 220 214 203 221 210 188 203 232 235 207 140 154 195 155 158 225 220 209 240 254 255 261 254 233 248 249 229 222 205 190 192 199 214 223 221 230 246 237 224 235 242 248 255 263 269 271 264 262 259 251 247 246 244 244 248 251
206 210 189 187 218 237 207 193 172 185 210 206 221 235 225 216 211 209 191 171 199 206 196 222 227 189 187 196 200 224 221 194 208 213 182 210 220 195 204 205 164 140 172 164 220 215 192 233 226 179 248 263 255 263 263 245 247 252 242 225 197 197 209 213 219 223 225 238 247 246 250 258 253 248 253 270 280 283 278 267 258 254 253 250 244 244 247 250
213 214 196 179 211 199 188 186 170 189 206 198 220 230 221 221 210 197 212 212 212 205 187 214 221 167 188 211 213 227 223 183 208 225 201 207 215 188 198 206 158 147 180 185 182 168 185 232 32 80 255 257 241 257 271 281 277 263 249 221 198 209 218 219 217 205 209 229 238 241 247 251 253 256 267 275 275 277 275 267 262 261 258 248 243 246 249 249
222 223 207 198 209 181 178 184 173 193 208 204 220 225 217 223 204 182 219 228 221 223 213 206 201 174 203 222 221 227 218 198 224 236 229 229 229 203 207 211 179 164 165 172 180 146 159 174 116 134 230 262 263 261 304 343 299 271 243 195 202 219 223 222 222 209 208 217 227 233 234 239 253 273 276 266 264 263 263 266 270 269 257 246 243 245 249 251